This is the latest recevied weather packets stored in our database for station/object KC8BSD. If no packets are shown the sender has not sent any weather packets the latest 10 day(s).
| Time | Temp. | Humidity | Pressure | Rain* | Wind** | Luminosity | Snow |
|---|---|---|---|---|---|---|---|
| 1778017182 | 12.22° C | 54% | 1008.8 hPa | 0 mm | - | 92 W/m² | - |
| 1778016880 | 12.22° C | 53% | 1009.2 hPa | 0 mm | - | 79 W/m² | - |
| 1778016576 | 12.22° C | 51% | 1009.2 hPa | 0 mm | - | 80 W/m² | - |
| 1778016273 | 12.22° C | 52% | 1008.9 hPa | 0 mm | - | 75 W/m² | - |
| 1778015969 | 12.78° C | 56% | 1009 hPa | 0 mm | - | 77 W/m² | - |
| 1778015667 | 12.78° C | 58% | 1008.8 hPa | 0 mm | - | 85 W/m² | - |
| 1778015363 | 12.78° C | 60% | 1008.8 hPa | 0 mm | - | 100 W/m² | - |
| 1778015063 | 12.78° C | 59% | 1008.8 hPa | 0 mm | - | 112 W/m² | - |
| 1778014756 | 12.78° C | 60% | 1009 hPa | 0 mm | - | 98 W/m² | - |
| 1778014455 | 12.78° C | 60% | 1009.3 hPa | 0 mm | - | 121 W/m² | - |
| 1778014152 | 12.78° C | 61% | 1009 hPa | 0 mm | - | 109 W/m² | - |
| 1778013849 | 12.78° C | 61% | 1009.2 hPa | 0 mm | - | 92 W/m² | - |
| 1778013546 | 12.78° C | 61% | 1009.4 hPa | 0 mm | - | 81 W/m² | - |
| 1778013243 | 12.78° C | 60% | 1009.3 hPa | 0 mm | - | 105 W/m² | - |
| 1778012939 | 12.78° C | 60% | 1009.3 hPa | 0 mm | - | 132 W/m² | - |
| 1778012635 | 12.78° C | 61% | 1008.9 hPa | 0 mm | - | 135 W/m² | - |
| 1778012332 | 12.78° C | 62% | 1009 hPa | 0 mm | - | 127 W/m² | - |
| 1778012029 | 12.78° C | 61% | 1008.7 hPa | 0 mm | - | 111 W/m² | - |
| 1778011728 | 12.78° C | 62% | 1008.7 hPa | 0 mm | - | 104 W/m² | - |
| 1778011424 | 12.78° C | 64% | 1008.8 hPa | 0 mm | - | 100 W/m² | - |
| 1778011120 | 12.78° C | 61% | 1008.9 hPa | 0 mm | - | 121 W/m² | - |
| 1778010817 | 12.78° C | 60% | 1008.9 hPa | 0 mm | - | 140 W/m² | - |
| 1778010514 | 13.33° C | 59% | 1008.9 hPa | 0 mm | - | 163 W/m² | - |
| 1778010212 | 13.33° C | 59% | 1009.2 hPa | 0 mm | - | 176 W/m² | - |
| 1778009907 | 13.33° C | 60% | 1009 hPa | 0 mm | - | 192 W/m² | - |
* Rain latest hour (hover to see other rain measurements)
** Current wind speed in m/s (hover to see current wind gust speed)